Tracking 30743 objects as of 22-Jun-2025
HD Live streaming from Space Station
objects crossing your sky now

STARLINK-4080

Track STARLINK-4080 now!
10-day predictions
STARLINK-4080 is classified as:


NORAD ID: 52835
Int'l Code: 2022-062F
Perigee: 546.0 km
Apogee: 547.8 km
Inclination: 53.2 °
Period: 95.4 minutes
Semi major axis: 6917 km
RCS: Unknown
Launch date: June 17, 2022
Source: United States (US)
Launch site: AIR FORCE EASTERN TEST RANGE (AFETR)
Your satellite tracking list
Your tracking list is empty




NASA's NSSDC Master Catalog

Two Line Element Set (TLE):
1 52835U 22062F   25172.57286636  .00000230  00000-0  32548-4 0  9996
2 52835  53.2166 126.3160 0001340  85.2609 274.8536 15.08835017166360
Source of the keplerian elements: AFSPC